Location: Newark
(5.2936°N, 52.5831°W)
Time: 09:37:13
(UTC+00:00)

X-37B - Visible Passes

Search period start: 04 July 2020 00:00
Search period end: 14 July 2020 00:00
Orbit: 389 x 390 km, 44.9° (Epoch: 18 May)

Date Brightness Start Highest point End Pass type
(mag) Time Alt. Az. Time Alt. Az. Time Alt. Az.
04 Jul ? 22:25:42 10° N 22:28:04 19° NE 22:29:49 13° E visible
05 Jul ? 23:03:26 10° WNW 23:06:27 42° SW 23:07:02 37° SSW visible
07 Jul ? 22:44:48 10° W 22:46:42 15° SW 22:48:35 10° S visible
10 Jul ? 08:23:21 10° SE 08:23:30 10° SE 08:23:39 10° SE visible
11 Jul ? 08:58:39 10° SW 09:01:49 87° SE 09:04:59 10° NE visible
12 Jul ? 08:02:56 24° SSE 08:03:41 27° SE 08:06:26 10° ENE visible
13 Jul ? 08:40:09 16° W 08:42:00 28° NW 08:44:47 10° NNE visible
